Location: Hilton Head Island
(32.2163°N, 80.7526°W)
Time: 02:56:36
(UTC-04:00)

Transit 2A Rocket - Pass Details

Date: 09 February 2026
Orbit: 583 x 900 km, 66.7° (Epoch: 11 March)

Event Time Altitude Azimuth Distance (km) Brightness Sun altitude
Rises 16:58:15 0° 177° (S) 3,385 8.7 12.1°
Reaches altitude 10° 17:00:56 10° 166° (SSE) 2,491 7.9 11.6°
Maximum altitude 17:05:56 30° 107° (ESE) 1,526 6.3 10.7°
Drops below altitude 10° 17:11:05 10° 48° (NE) 2,575 7.2 9.7°
Sets 17:13:53 0° 38° (NE) 3,518 7.9 9.1°
